Location: Bonfruit
(48.6424°N, 2.9130°E)
Time: 05:52:29
(UTC+00:00)

Daily predictions for brighter satellites

Satellite Brightness Start Highest point End
(mag) Time Altitude Azimuth Time Altitude Azimuth Time Altitude Azimuth
SL-16 R/B 4.1 00:59:05 31° NNE 00:59:05 31° NNE 01:02:28 10° N
SL-16 R/B 4.4 01:06:44 21° N 01:06:44 21° N 01:08:46 10° NNE
ATLAS 5 CENTAUR R/B 4.5 01:40:35 13° NNE 01:40:35 13° NNE 01:41:19 10° NNE
ADEOS II 3.9 01:33:59 10° NNE 01:36:36 28° NE 01:36:36 28° NE
Cosmos 1697 Rocket 4.2 02:09:02 10° NNW 02:14:08 33° NE 02:19:14 10° ESE
Cosmos 1821 Rocket 4.4 02:17:01 59° N 02:17:01 59° N 02:22:02 10° N
ALOS 4.3 02:13:45 10° NE 02:17:23 22° E 02:17:49 22° E
Cosmos 2123 Rocket 4.1 02:18:26 10° N 02:24:41 69° ENE 02:24:57 68° E
CZ-2D R/B 3.6 02:23:34 10° N 02:26:25 29° NNW 02:26:25 29° NNW
Resurs 1-4 Rocket 3.6 02:25:00 10° N 02:27:37 27° NNW 02:27:37 27° NNW
Cosmos 1934 Rocket 4.1 02:35:19 65° SE 02:36:01 70° E 02:42:18 10° NNE
SL-16 R/B 4.2 02:44:11 19° NW 02:44:11 19° NW 02:46:01 10° NNW
IDEFIX/ARIANE 42P 3.5 02:46:12 10° N 02:49:43 37° NNW 02:49:43 37° NNW
Cosmos 1980 Rocket 3.7 02:48:57 10° NNW 02:54:02 34° NE 02:59:06 10° ESE
USA 305 4.3 02:57:54 33° ESE 02:57:54 33° ESE 03:00:42 10° ENE
MSX 4.1 02:52:41 10° N 02:57:46 54° NW 02:57:46 54° NW
BREEZE-M DEB (TANK) 4.2 03:08:22 34° S 03:08:22 34° S 03:16:07 10° SE
CBERS-1 4.2 03:02:23 10° NNE 03:07:31 69° ESE 03:08:37 53° SSE
X-37B 3.6 03:10:50 12° ESE 03:10:50 12° ESE 03:11:06 10° ESE
IRS-1D 3.5 03:04:51 10° N 03:10:10 72° WNW 03:10:10 72° WNW
Cosmos 1190 Rocket 4.1 03:06:11 10° NNW 03:11:25 76° ENE 03:16:37 10° SSE
Cosmos 2056 Rocket 4.4 03:09:49 27° SSE 03:12:05 43° ESE 03:16:55 10° NE
BREEZE-M DEB (TANK) 3.9 03:13:25 31° ENE 03:13:25 31° ENE 03:14:43 10° E
Cosmos 1633 Rocket 3.9 03:09:41 10° N 03:13:55 49° ENE 03:18:07 10° SSE
ATLAS CENTAUR R/B 3.3 03:12:27 24° SSE 03:14:14 31° ESE 03:18:31 10° NE
PAYLOAD A 4.3 03:12:48 10° NNE 03:17:32 59° ESE 03:19:42 31° SSE
ADEOS II 3.3 03:14:03 10° N 03:17:31 27° NW 03:17:31 27° NW
Cosmos 407 Rocket 3.8 03:16:05 10° NNW 03:27:30 - S 03:20:07 49° NW
Atlas Centaur 2 4.3 03:21:38 20° S 03:22:15 20° S 03:27:29 10° SE
ATLAS 5 CENTAUR R/B 4.0 03:22:01 12° NNW 03:23:39 14° N 03:26:04 10° NNE
Cosmos 1666 Rocket 3.6 03:22:02 10° N 03:26:31 80° E 03:30:03 16° SSE
Meteor 1-14 Rocket 4.3 03:23:05 10° NNW 03:28:53 56° W 03:30:18 45° SW
Cosmos 1515 4.2 03:29:05 43° SE 03:29:55 54° E 03:33:34 10° NNE
Cosmos 1328 Rocket 4.3 03:28:13 20° SSE 03:30:59 53° E 03:35:18 10° NNE
USA 307 3.0 03:32:44 57° SSE 03:33:02 60° SE 03:37:08 10° ENE
Cosmos 1484 Rocket 4.4 03:30:06 10° NNE 03:33:45 34° E 03:37:22 10° SSE
Cosmos 1833 Rocket 2.6 03:32:50 38° SSW 03:35:06 86° ESE 03:40:48 10° NNE
CZ-2C R/B 2.3 03:30:16 10° NNE 03:35:20 87° ESE 03:37:31 34° SSW
Cosmos 2360 4.1 03:32:23 10° NNW 03:38:05 70° WSW 03:43:44 10° SSE
Cosmos 1151 Rocket 2.8 03:39:15 61° SW 03:39:55 77° W 03:44:13 10° N
FENGYUN 3A 3.6 03:34:44 10° N 03:40:03 62° WNW 03:41:44 41° SW
Meteor 1-11 Rocket 3.8 03:37:11 10° NNW 03:43:13 89° E 03:49:10 10° S
USA 306 2.7 03:44:56 61° SW 03:45:35 81° SSE 03:49:44 10° ENE
ARIANE 5 R/B 2.7 03:44:27 10° NNE 03:49:31 71° ESE 03:54:29 10° S
Cosmos 2082 Rocket 3.0 03:46:41 10° S 03:52:04 50° ESE 03:57:28 10° NE
Cosmos 1153 Rocket 4.4 03:46:38 10° S 03:52:47 83° W 03:59:03 10° N
Lacrosse 4 Rocket 3.8 03:49:43 10° NNW 03:53:15 24° NE 03:56:49 10° E
Cosmos 2100 Rocket 4.3 03:48:23 10° S 03:54:27 67° E 04:00:34 10° NNE
ALOS 2.5 03:50:30 10° N 03:55:01 49° WNW 03:56:17 38° WSW
Cosmos 1470 Rocket 3.5 03:53:24 10° N 03:57:46 83° E 04:02:07 10° S
Cosmos 1697 Rocket 2.8 03:52:52 10° NW 03:58:20 50° WSW 04:03:45 10° S
COSMOS 2406 3.4 03:55:00 14° SSW 03:59:52 73° ESE 04:05:32 10° NNE
METEOR-M 4.0 03:55:00 10° NNE 04:00:23 80° WNW 04:05:23 12° SSW
Helios 1B rocket 2.3 03:57:06 10° N 04:01:09 67° WNW 04:03:02 30° SSW
Cosmos 676 Rocket 3.9 03:56:27 10° NNW 04:01:39 70° WSW 04:06:51 10° SSE
Cosmos 1356 3.7 04:02:57 43° NW 04:02:57 43° NW 04:05:48 10° N
IRS-P3 4.1 03:59:41 10° NNE 04:05:04 85° WNW 04:10:24 10° SSW
CZ-2D R/B 3.4 04:02:02 10° NNE 04:06:00 77° ESE 04:09:59 10° S
ERBS 2.8 04:06:51 34° NNW 04:06:58 34° NNW 04:09:39 10° NE
CZ-2C R/B 2.5 04:02:39 10° S 04:07:50 67° WSW 04:13:10 10° NNW
USA 308 2.7 04:06:19 37° WSW 04:07:55 87° NNW 04:12:05 10° ENE
Cosmos 1743 2.6 04:04:22 10° NNW 04:08:06 57° W 04:11:49 10° S
BREEZE-M DEB (TANK) 1.6 04:07:52 55° W 04:08:22 86° N 04:12:17 10° E
Cosmos 1624 Rocket 4.0 04:06:30 22° SW 04:09:55 66° WNW 04:15:15 10° NNE
Cosmos 1536 2.9 04:10:14 10° NNW 04:14:11 52° W 04:18:06 10° S
Cosmos 1441 Rocket 3.0 04:12:34 21° SSW 04:14:56 66° WNW 04:18:41 10° N
Envisat 3.2 04:11:01 10° NNE 04:16:08 73° ESE 04:21:12 10° S
Meteor 1-4 Rocket 2.7 04:13:51 10° NNW 04:17:21 47° W 04:20:51 10° S
Cosmos 1371 Rocket 4.3 04:20:33 20° SW 04:24:00 48° WNW 04:29:05 10° NNE
CZ-2C R/B 4.0 04:20:43 10° NNE 04:24:19 42° E 04:27:57 10° S
Cosmos 1346 Rocket 3.3 04:22:51 23° SW 04:24:48 39° WNW 04:28:32 10° N
Cosmos 2322 Rocket 3.8 04:23:32 10° NNW 04:28:47 36° NE 04:33:59 10° ESE
COSMO-SKYMED 1 3.7 04:26:05 10° SE 04:30:15 48° ENE 04:34:27 10° N
H-2A R/B 2.8 04:30:37 10° NNE 04:34:16 72° ESE 04:37:54 10° S
Cosmos 1459 Rocket 4.0 04:29:06 10° SSW 04:35:25 71° W 04:41:50 10° N
SL-08 R/B 3.5 04:31:01 10° S 04:35:31 49° W 04:40:08 10° NNW
USA 305 3.1 04:33:26 20° W 04:36:05 57° NNW 04:40:11 10° ENE
Tsikada Rocket 4.3 04:31:01 10° N 04:37:22 72° ENE 04:43:36 10° SSE
Cosmos 1980 Rocket 2.4 04:32:51 10° NW 04:38:14 48° WSW 04:43:33 10° S
CENTAUR R/B 3.0 04:33:08 10° SSW 04:38:50 63° ESE 04:45:48 10° NE
Cosmos 1869 Rocket 4.0 04:35:28 10° N 04:39:56 68° ENE 04:44:19 10° SSE
Meteor 2-9 Rocket 4.2 04:35:07 10° NNW 04:40:53 72° W 04:46:28 10° S
Meteor 1-29 2.8 04:37:45 10° N 04:41:01 65° WNW 04:44:16 10° SSW
Cosmos 1802 Rocket 4.0 04:37:07 10° SSW 04:43:30 76° W 04:49:51 10° N
X-37B 1.2 04:42:04 19° WSW 04:43:42 39° S 04:46:26 10° ESE
CZ-2C R/B 3.3 04:38:11 10° NNE 04:44:00 85° WNW 04:49:36 10° SSW
Cosmos 2369 4.1 04:39:27 10° NW 04:44:44 40° WSW 04:49:57 10° S
Meteor 1-27 Rocket 4.0 04:39:15 10° SSW 04:44:50 49° WNW 04:50:34 10° N
Cosmos 1242 Rocket 4.3 04:42:12 10° N 04:45:26 35° ENE 04:48:36 10° SE
Cosmos 1850 Rocket 4.0 04:41:20 10° NNW 04:46:40 72° WSW 04:51:59 10° SSE
COSMOS 2455 4.3 04:41:20 10° NNW 04:46:54 37° NE 04:52:27 10° ESE
YAOGAN 6 3.1 04:46:15 10° N 04:49:41 39° WNW 04:53:03 10° SW
Cosmos 1633 Rocket 4.4 04:48:21 10° NW 04:51:18 18° W 04:54:16 10° SW
DMSP B5D2-2 4.2 04:47:04 10° SSE 04:52:20 83° ENE 04:57:39 10° NNW
Cosmos 2278 3.7 04:46:47 10° NNW 04:52:25 66° WSW 04:57:59 10° SSE
ATLAS CENTAUR R/B 2.1 04:48:27 12° WSW 04:52:50 49° NW 04:57:34 10° NNE
Cosmos 1725 Rocket 4.0 04:47:03 10° S 04:53:22 82° W 04:59:45 10° N
Cosmos 2056 Rocket 4.3 04:50:11 12° WSW 04:54:22 30° NW 04:58:53 10° N
CZ-4C R/B 3.7 04:51:31 10° S 04:55:33 49° W 04:59:46 10° NNW
Meteor 1-18 Rocket 4.5 04:50:19 10° S 04:56:01 77° E 05:01:40 10° NNE
SL-16 R/B 2.6 04:50:20 10° NNW 04:56:02 71° ENE 05:01:41 10° SE
NOSS 3-2 (C) 4.4 04:51:34 10° S 04:56:42 45° ESE 05:02:38 10° NE
NOSS 3-2 (A) 3.4 04:53:39 10° SW 04:59:07 82° SE 05:05:35 10° NE
Okean 1 3.6 04:55:59 10° SSW 04:59:53 47° WNW 05:03:49 10° N
BREEZE-M DEB (TANK) 3.6 04:59:06 12° W 05:01:44 36° SSW 05:08:50 10° SE
NOAA 11 4.2 04:56:18 10° NNE 05:01:50 84° WNW 05:07:18 10° SSW
Cosmos 1933 Rocket 4.1 04:58:39 10° NNW 05:02:44 36° W 05:06:46 10° SSW
Cosmos 44 Rocket 3.3 04:58:21 10° SW 05:03:00 59° NW 05:07:40 10° NNE
Cosmos 1733 Rocket 4.5 04:59:40 10° N 05:03:57 44° ENE 05:08:09 10° SSE
Cosmos 1461 3.1 05:00:40 10° SSW 05:04:37 70° SE 05:08:49 10° NE
Cosmos 2173 Rocket 4.4 05:00:38 10° SW 05:06:22 41° WNW 05:12:07 10° N
Cosmos 1484 Rocket 4.0 05:04:38 10° N 05:07:53 24° WNW 05:11:06 10° WSW
GP-B 3.6 05:04:33 10° SSW 05:08:41 38° W 05:12:50 10° NNW
ATLAS 5 CENTAUR R/B 4.1 05:06:36 10° NNW 05:10:00 19° NNE 05:13:51 10° ENE
Spot 4 Rocket 4.3 05:06:37 10° N 05:11:33 48° WNW 05:16:27 10° SW
SJ-6F 4.4 05:07:37 10° N 05:11:46 65° WNW 05:15:50 10° SSW
USA 307 3.4 05:08:31 10° W 05:12:34 48° NNW 05:16:37 10° ENE
USA 238 DEB 4.4 05:06:22 10° SSW 05:12:35 56° ESE 05:19:14 10° NE
USA 238 4.4 05:06:29 10° SSW 05:12:42 56° ESE 05:19:20 10° NE
CZ-2C R/B 4.1 05:09:49 10° NNW 05:12:48 16° NW 05:15:44 10° W
PSLV R/B 3.7 05:09:06 10° N 05:13:21 55° WNW 05:17:33 10° SSW
Cosmos 1741 Rocket 4.3 05:10:10 10° NW 05:15:06 44° WSW 05:20:02 10° S
CZ-3 R/B 4.1 05:15:40 10° WSW 05:28:09 22° SSW 05:33:51 10° SSE
BREEZE M DEB (TANK) 3.8 05:18:28 10° W 05:33:44 89° SSW 05:37:40 10° ESE
